Regional Weather Roundup
Issued by NWS

Home | Current Version | Previous Version | Graphics & Text | Print | Product List | Glossary On
Versions: 1 2 3 4 5 6 7 8 9 10 11 12 13 14 15 16 17 18 19 20 21 22 23 24 25 26 27 28 29 30 31 32 33 34 35 36 37 38 39 40 41 42 43 44 45 46 47 48 49 50
000
ASUS43 KDTX 201501
RWRMI
MICHIGAN HOURLY REGIONAL WEATHER ROUNDUP
NATIONAL WEATHER SERVICE DETROIT/PONTIAC MI
1100 AM EDT FRI OCT 20 2017

NOTE: "FAIR" INDICATES FEW OR NO CLOUDS BELOW 12,000 FEET WITH NO
SIGNIFICANT WEATHER AND/OR OBSTRUCTION TO VISIBILITY.

MIZ047>049-052>055-059>063-066>070-074>076-081>083-201600-
SOUTHEAST LOWER MICHIGAN

CITY           SKY/WX    TMP DP  RH WIND       PRES   REMARKS
ADRIAN         SUNNY     60  38  43 S6        30.29F
ALMA           SUNNY     60  41  48 SW12      30.21F
ANN ARBOR      SUNNY     59  36  42 S9        30.28S
BAD AXE        SUNNY     62  32  31 SW12      30.23S
CARO           SUNNY     65  38  36 S8        30.22S
DETROIT CITY   SUNNY     59  40  49 SW7       30.29S
DETROIT        MOSUNNY   59  40  49 S6        30.29F
FLINT          SUNNY     64  42  44 S10       30.24F
GROSSE ILE     SUNNY     58  44  59 S6        30.28F
HILLSDALE      SUNNY     61  32  33 S12       30.27F
HOWELL         SUNNY     60  38  44 S7        30.26S

CITY           SKY/WX    TMP DP  RH WIND       PRES   REMARKS
JACKSON        SUNNY     62  40  44 S7        30.26S
LAMBERTVILLE   SUNNY     64  38  38 S7        30.28F
LANSING        SUNNY     63  44  50 S8        30.24F
LAPEER         FAIR      65  34  31 SW6       30.25S
MASON          SUNNY     62  43  49 S10       30.25F
MONROE         SUNNY     63  39  42 S8        30.28F
PONTIAC        PTSUNNY   59  34  39 S7        30.27S
PORT HOPE        N/A     64  32  30 VRB3      30.19F
PORT HURON     SUNNY     63  41  45 S3        30.26F
TRI CITIES     SUNNY     61  43  51 SW10      30.21F
MIDLAND        FAIR      63  43  47 SW8       30.20S
TROY           SUNNY     58  36  44 S6        30.29F
SAGINAW HB     SUNNY     61  43  51 S7        30.21S
$$
MIZ043>046-050>051-056>058-064>065-071>073-077>080-201600-
SOUTHWEST LOWER MICHIGAN

CITY           SKY/WX    TMP DP  RH WIND       PRES   REMARKS
BATTLE CREEK   SUNNY     62  48  60 S9        30.24F
BENTON HARBOR  SUNNY     64  50  60 S8        30.21S
BIG RAPIDS     SUNNY     63  45  51 SW6       30.17F
COLDWATER      SUNNY     62  38  40 S5        30.26S
FREMONT        FAIR      61  48  60 S7        30.17F
HOLLAND        SUNNY     64  50  60 S9        30.20S
GRAND RAPIDS   MOSUNNY   64  49  57 S9        30.20F
IONIA          FAIR      64  45  49 S6        30.21F
KALAMAZOO      SUNNY     60  46  59 S10       30.24F
LUDINGTON      SUNNY     65  53  65 S10       30.13F
MARSHALL       SUNNY     62  43  50 S8        30.25S
MOUNT PLEASANT SUNNY     64  43  45 S6        30.19F
MUSKEGON       MOSUNNY   67  52  58 S13       30.18S
SOUTH HAVEN    SUNNY     66  50  57 S7        30.20F
$$
MIZ016>042-201600-
NORTHERN LOWER MICHIGAN

CITY           SKY/WX    TMP DP  RH WIND       PRES   REMARKS
ALPENA         SUNNY     62  38  40 S8        30.15F
BEAVER ISLAND  SUNNY     64  50  60 SW13G22   30.06F
BELLAIRE       SUNNY     64  44  49 SW3       30.12F
CADILLAC       SUNNY     63  43  49 SW9       30.15F
CHARLEVOIX     SUNNY     64  45  51 S9G17     30.12S
FRANKFORT      SUNNY     67  52  60 S10G17    30.11S
GAYLORD        SUNNY     63  44  50 SW13      30.13F
GRAYLING       SUNNY     62  41  46 SW7       30.15F
HARBOR SPRINGS SUNNY     65  45  48 SW7       30.09S
HOUGHTON LAKE  SUNNY     60  43  53 SW9       30.18S
MANISTEE       SUNNY     63  51  65 S12       30.12F
OSCODA         SUNNY     60  36  40 SW14G24   30.17F
PELLSTON       SUNNY     66  46  48 SW8       30.09F
ROGERS CITY    SUNNY     62  40  45 SW9G18    30.12F
TRAVERSE CITY  SUNNY     65  46  50 VRB6      30.10F
$$
MIZ007>008-015-201600-
EASTERN UPPER MICHIGAN

CITY           SKY/WX    TMP DP  RH WIND       PRES   REMARKS
KINROSS        SUNNY     62  45  53 VRB5      30.07F
MACKINAC ISLAN SUNNY     63  42  47 S9        30.08S
NEWBERRY       SUNNY     60  55  82 SW17G25   30.03S
S. S. MARIE    SUNNY     56  49  77 CALM      30.06F
MUNISING         N/A     60  47  61 S14       29.99S
$$
MIZ004>006-011>014-085-201600-
CENTRAL UPPER MICHIGAN

CITY           SKY/WX    TMP DP  RH WIND       PRES   REMARKS
MANISTIQUE     SUNNY     58  53  81 S13G18    30.05R
ESCANABA       SUNNY     59  48  67 S7        30.03F
MENOMINEE      SUNNY     62  49  62 MISG      30.05F
SAWYER-GWINN   SUNNY     54  41  62 S12       30.00F
$$
MIZ001>003-009>011-084-201600-
WESTERN UPPER MICHIGAN

CITY           SKY/WX    TMP DP  RH WIND       PRES   REMARKS
IRON MOUNTAIN  SUNNY     55  40  56 S5        30.00F
HOUGHTON       SUNNY     59  45  59 S9        29.91F
COPPER HARBOR    N/A     61  45  55 SW12G18   29.90F
IRONWOOD       SUNNY     62  48  60 S8G16     29.91F
$$

ABBREVIATIONS USED IN REMARKS
   TC - TEMPERATURE IN CELSIUS
  WCI - WIND CHILL INDEX
   HX - HEAT INDEX
  VSB - VISIBILITY





USA.gov is the U.S. government's official web portal to all federal, state and local government web resources and services.